N8QQQ Weather Reports


time (UTC)temp
C
wind
direction
speed
KPH
gust
KPH
rain 1hr
cm
rain 24hr
cm
rain mn
cm
humidity
%
barometer
mb
20260509224615 6 338 6.4 9.7 0.00 0.00 0.00 51 1007.7
20260509224112 6 322 4.8 4.8 0.00 0.00 0.00 51 1007.6
20260509223609 6 351 9.7 16.1 0.00 0.00 0.00 51 1007.5
20260509223107 6 27 8.0 12.9 0.00 0.00 0.00 50 1007.5
20260509222603 7 35 4.8 6.4 0.00 0.00 0.00 50 1007.5
20260509222059 7 2 14.5 20.9 0.00 0.00 0.00 50 1007.3
20260509221554 7 291 9.7 16.1 0.00 0.00 0.00 49 1007.3
20260509221051 7 344 6.4 9.7 0.00 0.00 0.00 49 1007.0
20260509220546 7 316 9.7 14.5 0.00 0.00 0.00 49 1007.0
20260509220043 7 2 11.3 12.9 0.00 0.00 0.00 48 1006.8
20260509215538 7 35 6.4 11.3 0.00 0.00 0.00 46 1006.7
20260509215036 7 333 4.8 4.8 0.00 0.00 0.00 46 1006.6
20260509214533 7 296 16.1 22.5 0.00 0.00 0.00 45 1006.4
20260509214030 7 323 6.4 6.4 0.00 0.00 0.00 44 1006.4
20260509213526 7 327 12.9 24.1 0.00 0.00 0.00 45 1006.4
20260509213023 7 287 3.2 4.8 0.00 0.00 0.00 46 1006.2
20260509212520 7 298 3.2 3.2 0.00 0.00 0.00 44 1006.1
20260509212017 7 353 6.4 6.4 0.00 0.00 0.00 44 1006.1
20260509211513 7 3 6.4 6.4 0.00 0.00 0.00 44 1006.1
20260509211009 7 13 4.8 6.4 0.00 0.00 0.00 43 1005.7
20260509210506 7 351 6.4 12.9 0.00 0.00 0.00 45 1005.9
20260509210003 8 352 6.4 6.4 0.00 0.00 0.00 43 1005.8
20260509205457 8 333 3.2 6.4 0.00 0.00 0.00 42 1005.8
20260509204952 8 0 4.8 6.4 0.00 0.00 0.00 42 1005.5
20260509204449 8 346 8.0 9.7 0.00 0.00 0.00 42 1005.5
20260509203946 8 351 11.3 17.7 0.00 0.00 0.00 41 1005.5
20260509203441 8 327 11.3 16.1 0.00 0.00 0.00 41 1005.4
20260509202939 8 344 6.4 9.7 0.00 0.00 0.00 42 1005.3
20260509202435 8 22 3.2 3.2 0.00 0.00 0.00 43 1005.1
20260509201930 8 4 4.8 6.4 0.00 0.00 0.00 43 1004.9
20260509201425 8 30 8.0 12.9 0.00 0.00 0.00 41 1004.9
20260509200922 8 320 9.7 14.5 0.00 0.00 0.00 38 1004.7
20260509200417 10 359 6.4 9.7 0.00 0.00 0.00 37 1004.5
20260509195913 10 36 4.8 6.4 0.00 0.00 0.00 37 1004.4
20260509195408 10 268 8.0 11.3 0.00 0.00 0.00 37 1004.1
20260509194902 10 269 9.7 16.1 0.00 0.00 0.00 38 1004.2
20260509194359 9 22 8.0 11.3 0.00 0.00 0.00 40 1004.1
20260509193855 8 16 9.7 12.9 0.00 0.00 0.00 40 1004.1
20260509193350 8 319 6.4 11.3 0.00 0.00 0.00 41 1004.2
20260509192846 8 30 9.7 27.4 0.00 0.00 0.00 41 1003.9
20260509192343 9 9 14.5 22.5 0.00 0.00 0.00 39 1003.9
20260509191838 9 304 9.7 12.9 0.00 0.00 0.00 39 1003.5
20260509191334 9 340 6.4 6.4 0.00 0.00 0.00 39 1003.6
20260509190830 9 287 9.7 16.1 0.00 0.00 0.00 38 1003.5
20260509190327 10 293 8.0 11.3 0.00 0.00 0.00 37 1003.4
20260509185825 9 321 6.4 6.4 0.00 0.00 0.00 38 1003.3
20260509185321 10 342 12.9 17.7 0.00 0.00 0.00 37 1003.0
20260509184819 10 253 11.3 24.1 0.00 0.00 0.00 37 1003.1
20260509184315 10 302 12.9 22.5 0.00 0.00 0.00 37 1003.1
20260509183812 10 10 12.9 20.9 0.00 0.00 0.00 36 1002.7
20260509183307 10 17 11.3 17.7 0.00 0.00 0.00 36 1002.5
20260509182803 10 323 14.5 17.7 0.00 0.00 0.00 35 1002.4
20260509182300 10 275 3.2 3.2 0.00 0.00 0.00 35 1002.2
20260509181757 10 15 8.0 11.3 0.00 0.00 0.00 35 1002.2
20260509181255 10 305 6.4 11.3 0.00 0.00 0.00 35 1002.2
20260509180752 10 343 11.3 14.5 0.00 0.00 0.00 34 1001.9
20260509180248 11 287 9.7 12.9 0.00 0.00 0.00 33 1001.8
20260509175744 11 263 6.4 11.3 0.00 0.00 0.00 32 1001.8
20260509175241 10 272 8.0 11.3 0.00 0.00 0.00 33 1001.7
20260509174737 11 261 1.6 4.8 0.00 0.00 0.00 33 1001.4
20260509174232 11 239 4.8 6.4 0.00 0.00 0.00 32 1001.5
20260509173729 11 315 9.7 12.9 0.00 0.00 0.00 32 1001.2
20260509173224 11 294 6.4 11.3 0.00 0.00 0.00 32 1001.3
20260509172721 11 259 8.0 9.7 0.00 0.00 0.00 31 1001.0
20260509172217 11 299 12.9 17.7 0.00 0.00 0.00 31 1001.2
20260509171713 11 283 4.8 9.7 0.00 0.00 0.00 31 1001.3
20260509171209 11 325 17.7 22.5 0.00 0.00 0.00 30 1001.1
20260509170706 11 355 9.7 11.3 0.00 0.00 0.00 32 1001.2
20260509170202 12 315 11.3 22.5 0.00 0.00 0.00 30 1001.0
20260509165701 11 341 4.8 9.7 0.00 0.00 0.00 32 1000.9
20260509165156 11 328 8.0 9.7 0.00 0.00 0.00 31 1000.8
20260509164652 10 328 9.7 12.9 0.00 0.00 0.00 32 1000.5
20260509164148 10 6 12.9 17.7 0.00 0.00 0.00 31 1000.6
20260509163646 10 2 17.7 29.0 0.00 0.00 0.00 31 1000.8
20260509163142 11 357 6.4 11.3 0.00 0.00 0.00 31 1000.5
20260509162639 11 348 11.3 12.9 0.00 0.00 0.00 31 1000.4
20260509162135 10 337 6.4 6.4 0.00 0.00 0.00 32 1000.6
20260509161631 10 292 9.7 14.5 0.00 0.00 0.00 33 1000.6
20260509161126 10 3 6.4 9.7 0.00 0.00 0.00 33 1000.4
20260509160623 10 5 8.0 11.3 0.00 0.00 0.00 33 1000.5
20260509160118 10 344 6.4 9.7 0.00 0.00 0.00 33 1000.5
20260509155615 10 326 11.3 14.5 0.00 0.00 0.00 34 1000.5
20260509155111 9 4 14.5 17.7 0.00 0.00 0.00 34 1000.2
20260509154606 10 259 11.3 17.7 0.00 0.00 0.00 34 1000.2
20260509154104 9 357 12.9 20.9 0.00 0.00 0.00 34 1000.2
20260509153601 9 309 3.2 4.8 0.00 0.00 0.00 35 1000.0
20260509153058 9 265 4.8 4.8 0.00 0.00 0.00 35 1000.1
20260509152554 9 306 3.2 4.8 0.00 0.00 0.00 36 1000.2
20260509152051 9 339 9.7 12.9 0.00 0.00 0.00 35 1000.2
20260509151547 9 287 8.0 11.3 0.00 0.00 0.00 35 999.8
20260509151045 9 356 6.4 9.7 0.00 0.00 0.00 35 999.7
20260509150542 10 10 12.9 14.5 0.00 0.00 0.00 34 1000.0
20260509150035 10 312 8.0 11.3 0.00 0.00 0.00 34 999.7
20260509145530 10 301 9.7 16.1 0.00 0.00 0.00 33 999.5
20260509145026 10 262 8.0 9.7 0.00 0.00 0.00 33 999.7
20260509144523 10 329 4.8 9.7 0.00 0.00 0.00 35 999.4
20260509144020 10 281 8.0 14.5 0.00 0.00 0.00 35 999.3
20260509143517 10 250 4.8 6.4 0.00 0.00 0.00 36 999.3
20260509143015 10 277 9.7 12.9 0.00 0.00 0.00 35 999.2
20260509142510 9 5 8.0 14.5 0.00 0.00 0.00 36 999.0
20260509142006 9 313 8.0 12.9 0.00 0.00 0.00 36 999.1
20260509141503 9 310 9.7 12.9 0.00 0.00 0.00 37 999.1
20260509140959 8 317 8.0 11.3 0.00 0.00 0.00 38 999.0
20260509140455 8 13 8.0 11.3 0.00 0.00 0.00 39 999.2
20260509135954 8 8 6.4 9.7 0.00 0.00 0.00 40 999.0
20260509135451 8 334 3.2 3.2 0.00 0.00 0.00 40 999.1
20260509134948 8 335 3.2 3.2 0.00 0.00 0.00 41 999.0
20260509134446 8 7 4.8 4.8 0.00 0.00 0.00 40 999.0
20260509133943 8 352 4.8 9.7 0.00 0.00 0.00 40 999.0
20260509133439 8 359 9.7 14.5 0.00 0.00 0.00 39 998.9
20260509132938 9 307 8.0 11.3 0.00 0.00 0.00 38 998.9
20260509132435 9 332 8.0 14.5 0.00 0.00 0.00 38 998.9
20260509131932 8 12 9.7 14.5 0.00 0.00 0.00 38 998.9
20260509131429 8 302 8.0 11.3 0.00 0.00 0.00 40 999.0
20260509130926 8 36 8.0 12.9 0.00 0.00 0.00 43 999.0
20260509130421 8 283 6.4 6.4 0.00 0.00 0.00 43 999.0
20260509125919 8 277 3.2 4.8 0.00 0.00 0.00 45 999.0
20260509125415 8 312 4.8 6.4 0.00 0.00 0.00 48 998.7
20260509124911 8 344 6.4 11.3 0.00 0.00 0.00 47 998.8
20260509124408 8 259 4.8 6.4 0.00 0.00 0.00 48 998.6
20260509123906 8 326 1.6 3.2 0.00 0.00 0.00 49 998.7
20260509123403 8 1 6.4 9.7 0.00 0.00 0.00 48 998.8
20260509122859 8 261 6.4 11.3 0.00 0.00 0.00 48 998.7
20260509122356 7 322 3.2 4.8 0.00 0.00 0.00 48 998.6
20260509121852 7 285 3.2 3.2 0.00 0.00 0.00 49 998.7
20260509121350 7 317 4.8 4.8 0.00 0.00 0.00 49 998.4
20260509120848 7 263 4.8 4.8 0.00 0.00 0.00 49 998.6
20260509120345 7 1 6.4 9.7 0.00 0.00 0.00 50 998.4
20260509115843 7 294 6.4 9.7 0.00 0.00 0.00 50 998.2
20260509115340 7 296 1.6 1.6 0.00 0.00 0.00 54 998.3
20260509114838 7 310 1.6 1.6 0.00 0.00 0.00 55 998.3
20260509114336 7 309 1.6 3.2 0.00 0.00 0.00 54 998.1
20260509113835 6 331 0.0 0.0 0.00 0.00 0.00 54 998.1
20260509113332 6 331 0.0 0.0 0.00 0.00 0.00 54 998.1
20260509112829 6 6 3.2 3.2 0.00 0.00 0.00 54 998.0
20260509112326 6 299 3.2 3.2 0.00 0.00 0.00 55 998.0
20260509111823 6 357 1.6 3.2 0.00 0.00 0.00 55 998.0
20260509111320 6 325 0.0 0.0 0.00 0.00 0.00 55 998.0
20260509110818 6 324 6.4 6.4 0.00 0.00 0.00 54 997.9
20260509110313 6 358 0.0 0.0 0.00 0.00 0.00 56 997.8
20260509105812 6 344 0.0 0.0 0.00 0.00 0.00 57 997.9
20260509105310 6 349 1.6 1.6 0.00 0.00 0.00 56 997.8
20260509104806 6 329 1.6 1.6 0.00 0.00 0.00 57 997.9
20260509104303 6 303 1.6 1.6 0.00 0.00 0.00 57 998.1
20260509103801 6 312 1.6 3.2 0.00 0.00 0.00 57 997.9
20260509103258 6 341 0.0 1.6 0.00 0.00 0.00 58 998.0
20260509102756 6 12 6.4 6.4 0.00 0.00 0.00 57 997.4
20260509102253 6 338 3.2 4.8 0.00 0.00 0.00 58 997.6
20260509101749 6 0 3.2 3.2 0.00 0.00 0.00 58 997.7
20260509101245 6 315 4.8 4.8 0.00 0.00 0.00 61 997.8
20260509100743 5 300 1.6 1.6 0.00 0.00 0.00 64 997.9
20260509100240 5 323 0.0 1.6 0.00 0.00 0.00 66 997.8
20260509095736 5 314 3.2 3.2 0.00 0.00 0.00 67 997.6
20260509095234 5 313 0.0 1.6 0.00 0.00 0.00 67 997.8
20260509094731 5 318 0.0 0.0 0.00 0.00 0.00 68 997.7
20260509094228 5 297 1.6 1.6 0.00 0.00 0.00 69 998.0
20260509093726 5 323 1.6 1.6 0.00 0.00 0.00 70 997.7
20260509093223 4 302 1.6 3.2 0.00 0.00 0.00 73 997.7
20260509092721 3 313 0.0 1.6 0.00 0.00 0.00 75 997.7
20260509092219 2 325 0.0 1.6 0.00 0.00 0.00 81 997.7
20260509091717 2 344 1.6 1.6 0.00 0.00 0.00 85 997.3
20260509091212 1 339 0.0 0.0 0.00 0.00 0.00 87 997.4
20260509090710 1 313 1.6 1.6 0.00 0.00 0.00 88 997.7
20260509090207 1 312 0.0 0.0 0.00 0.00 0.00 87 997.6
20260509085705 1 312 0.0 0.0 0.00 0.00 0.00 86 997.4
20260509085201 1 312 0.0 0.0 0.00 0.00 0.00 87 997.9
20260509084658 1 312 0.0 0.0 0.00 0.00 0.00 87 997.8
20260509084155 1 312 0.0 0.0 0.00 0.00 0.00 87 997.6
20260509083653 1 312 0.0 0.0 0.00 0.00 0.00 86 997.4
20260509083149 1 312 0.0 0.0 0.00 0.00 0.00 86 997.8
20260509082646 1 313 0.0 0.0 0.00 0.00 0.00 87 997.6
20260509082143 1 312 0.0 0.0 0.00 0.00 0.00 87 997.7
20260509081640 1 319 0.0 0.0 0.00 0.00 0.00 87 997.9
20260509081137 1 29 0.0 0.0 0.00 0.00 0.00 86 997.6
20260509080635 1 29 0.0 0.0 0.00 0.00 0.00 86 997.4
20260509080133 1 28 0.0 0.0 0.00 0.00 0.00 85 997.4
20260509075631 0 29 0.0 0.0 0.00 0.00 0.00 86 997.4
20260509075128 0 29 0.0 0.0 0.00 0.00 0.00 87 997.7
20260509074625 0 29 0.0 0.0 0.00 0.00 0.00 87 997.8
20260509074121 0 29 0.0 0.0 0.00 0.00 0.00 87 997.7
20260509073618 0 29 0.0 0.0 0.00 0.00 0.00 85 998.0
20260509073114 0 29 0.0 0.0 0.00 0.00 0.00 85 998.0
20260509072611 0 29 0.0 0.0 0.00 0.00 0.00 84 997.9
20260509072108 0 29 0.0 0.0 0.00 0.00 0.00 87 998.2
20260509071605 0 29 0.0 0.0 0.00 0.00 0.00 86 998.1
20260509071102 0 29 0.0 0.0 0.00 0.00 0.00 85 998.2
20260509070559 0 29 0.0 0.0 0.00 0.00 0.00 85 998.3
20260509070055 0 29 0.0 0.0 0.00 0.00 0.00 86 998.4
20260509065551 0 29 0.0 0.0 0.00 0.00 0.00 84 998.3
20260509065047 0 29 0.0 0.0 0.00 0.00 0.00 87 998.6
20260509064545 0 29 0.0 0.0 0.00 0.00 0.00 88 998.5
20260509064043 0 29 0.0 0.0 0.00 0.00 0.00 89 998.7
20260509063538 0 29 0.0 0.0 0.00 0.00 0.00 88 998.7
20260509063036 -1 29 0.0 0.0 0.00 0.00 0.00 88 998.6
20260509062533 -1 29 0.0 0.0 0.00 0.00 0.00 89 998.6
20260509062030 -1 29 0.0 0.0 0.00 0.00 0.00 88 998.8
20260509061527 0 29 0.0 0.0 0.00 0.00 0.00 88 998.8
20260509061024 0 29 0.0 0.0 0.00 0.00 0.00 86 998.7
20260509060522 0 29 0.0 0.0 0.00 0.00 0.00 88 998.9
20260509060017 0 29 0.0 0.0 0.00 0.00 0.00 87 999.1
20260509055513 0 29 0.0 0.0 0.00 0.00 0.00 87 999.2
20260509055009 -1 29 0.0 0.0 0.00 0.00 0.00 85 999.4
20260509054506 0 29 0.0 0.0 0.00 0.00 0.00 86 999.4
20260509054004 0 29 0.0 0.0 0.00 0.00 0.00 85 999.5
20260509053502 0 29 0.0 0.0 0.00 0.00 0.00 85 999.3
20260509052959 0 29 0.0 0.0 0.00 0.00 0.00 84 999.3
20260509052456 0 29 0.0 0.0 0.00 0.00 0.00 85 999.5
20260509051954 0 29 0.0 0.0 0.00 0.00 0.00 83 999.7
20260509051452 0 29 0.0 0.0 0.00 0.00 0.00 82 999.4
20260509050949 0 29 0.0 0.0 0.00 0.00 0.00 83 999.7
20260509050445 0 29 0.0 0.0 0.00 0.00 0.00 83 999.6
20260509045942 0 29 0.0 0.0 0.00 0.00 0.00 83 999.8
20260509045439 1 29 0.0 0.0 0.00 0.00 0.00 82 999.8
20260509044936 1 29 0.0 0.0 0.00 0.00 0.00 79 1000.0
20260509044434 1 29 0.0 0.0 0.00 0.00 0.00 82 1000.2
20260509043931 1 29 0.0 0.0 0.00 0.00 0.00 82 1000.2
20260509043426 1 29 0.0 0.0 0.00 0.00 0.00 81 1000.2
20260509042922 1 29 0.0 0.0 0.00 0.00 0.00 81 1000.3
20260509042420 1 29 0.0 0.0 0.00 0.00 0.00 78 1000.4
20260509041915 1 29 0.0 0.0 0.00 0.00 0.00 77 1000.5
20260509041413 1 29 0.0 0.0 0.00 0.00 0.00 75 1000.6
20260509040911 1 29 0.0 0.0 0.00 0.00 0.00 79 1000.6
20260509040408 2 29 0.0 0.0 0.00 0.00 0.00 76 1000.7
20260509035905 2 29 0.0 0.0 0.00 0.00 0.00 74 1000.9
20260509035402 2 29 0.0 0.0 0.00 0.00 0.00 78 1001.1
20260509034858 2 29 0.0 0.0 0.00 0.00 0.00 73 1001.0
20260509034356 2 29 0.0 0.0 0.00 0.00 0.00 73 1001.1
20260509033853 2 29 0.0 0.0 0.00 0.00 0.00 75 1001.0
20260509033350 2 29 0.0 0.0 0.00 0.00 0.00 67 1001.2
20260509032846 3 29 0.0 0.0 0.00 0.00 0.00 73 1001.4
20260509032343 3 29 0.0 0.0 0.00 0.00 0.00 70 1001.4
20260509031842 3 29 0.0 0.0 0.00 0.00 0.00 68 1001.5
20260509031333 3 29 0.0 0.0 0.00 0.00 0.00 68 1001.3
20260509030831 4 29 0.0 0.0 0.00 0.00 0.00 65 1001.4
20260509030328 5 29 0.0 0.0 0.00 0.00 0.00 59 1001.6
20260509025825 5 29 0.0 0.0 0.00 0.00 0.00 58 1001.8
20260509025320 6 29 0.0 0.0 0.00 0.00 0.00 54 1001.6
20260509024816 6 29 0.0 0.0 0.00 0.00 0.00 52 1001.5
20260509024312 7 29 0.0 0.0 0.00 0.00 0.00 51 1001.5
20260509023810 7 29 0.0 1.6 0.00 0.00 0.00 48 1001.6
20260509023307 7 109 0.0 0.0 0.00 0.00 0.00 45 1001.7
20260509022803 7 108 3.2 3.2 0.00 0.00 0.00 46 1001.9
20260509022301 7 245 0.0 0.0 0.00 0.00 0.00 48 1002.0
20260509021757 7 240 3.2 4.8 0.00 0.00 0.00 48 1001.7
20260509021255 7 122 1.6 3.2 0.00 0.00 0.00 45 1002.0
20260509020752 7 351 0.0 0.0 0.00 0.00 0.00 47 1002.0
20260509020250 7 351 0.0 0.0 0.00 0.00 0.00 49 1002.2
20260509015747 8 79 0.0 0.0 0.00 0.00 0.00 48 1002.2
20260509015245 8 80 0.0 0.0 0.00 0.00 0.00 47 1002.0
20260509014741 8 80 0.0 0.0 0.00 0.00 0.00 44 1002.0
20260509014239 8 80 0.0 0.0 0.00 0.00 0.00 43 1002.0
20260509013735 9 44 1.6 1.6 0.00 0.00 0.00 41 1002.1
20260509013231 9 30 1.6 1.6 0.00 0.00 0.00 41 1002.0
20260509012728 9 93 0.0 0.0 0.00 0.00 0.00 42 1001.8
20260509012224 9 93 0.0 0.0 0.00 0.00 0.00 41 1001.9
20260509011722 10 93 0.0 0.0 0.00 0.00 0.00 43 1001.9
20260509011220 10 57 0.0 1.6 0.00 0.00 0.00 40 1001.8
20260509010717 10 30 0.0 0.0 0.00 0.00 0.00 41 1001.8
20260509010213 10 39 0.0 0.0 0.00 0.00 0.00 41 1001.9
20260509005711 10 110 0.0 0.0 0.00 0.00 0.00 41 1002.0
20260509005208 10 120 0.0 0.0 0.00 0.00 0.00 40 1001.7
20260509004702 10 64 1.6 1.6 0.00 0.00 0.00 38 1001.8
20260509004200 11 109 1.6 1.6 0.00 0.00 0.00 39 1001.8
20260509003658 11 90 0.0 1.6 0.00 0.00 0.00 40 1001.6
20260509003156 11 61 1.6 1.6 0.00 0.00 0.00 38 1001.7
20260509002653 11 47 0.0 0.0 0.00 0.00 0.00 37 1001.9
20260509002150 12 41 1.6 1.6 0.00 0.00 0.00 37 1001.6
20260509001648 12 228 1.6 1.6 0.00 0.00 0.00 34 1001.8
20260509001143 13 38 1.6 1.6 0.00 0.00 0.00 34 1001.7
20260509000641 13 290 0.0 1.6 0.00 0.00 0.00 31 1001.8
20260509000138 13 183 0.0 0.0 0.00 0.00 0.00 31 1001.9
20260508235636 13 148 1.6 3.2 0.00 0.00 0.00 36 1001.8
20260508235132 13 274 0.0 1.6 0.00 0.00 0.00 35 1001.8
20260508234629 13 320 1.6 1.6 0.00 0.00 0.00 31 1002.0
20260508234125 13 286 0.0 0.0 0.00 0.00 0.00 31 1002.1
20260508233625 13 286 0.0 0.0 0.00 0.00 0.00 29 1002.0
20260508233122 13 286 0.0 0.0 0.00 0.00 0.00 34 1001.9
20260508232619 13 285 0.0 0.0 0.00 0.00 0.00 33 1001.8
20260508232116 13 285 0.0 0.0 0.00 0.00 0.00 28 1002.0
20260508231614 13 286 0.0 0.0 0.00 0.00 0.00 28 1002.2
20260508231110 14 284 1.6 1.6 0.00 0.00 0.00 28 1002.0
20260508230607 14 286 0.0 0.0 0.00 0.00 0.00 28 1002.1
20260508230103 14 323 0.0 1.6 0.00 0.00 0.00 28 1002.1
20260508225601 14 266 0.0 1.6 0.00 0.00 0.00 27 1002.1
20260508225057 14 267 0.0 0.0 0.00 0.00 0.00 28 1002.2